Wind_Speed
36 38 39 39 38 37 36 34 32 31 30 29 28 26 24 24 24 23 21 20 20 21 23 23 23 25 26 27 27 28 28 27 26 25 24 23 21 20 19 18 17 15 14
37 39 41 41 40 39 38 36 34 32 30 29 28 26 24 24 23 24 23 22 21 21 21 22 22 22 24 26 27 28 28 29 29 28 27 25 24 23 21 20 19 18 17
37 38 39 40 40 39 37 36 35 34 32 30 28 28 26 24 24 24 23 23 22 21 21 21 21 22 22 24 26 27 28 29 30 30 30 28 27 25 24 23 21 20 19
34 35 36 38 40 39 37 36 35 34 33 32 30 29 28 26 26 26 25 24 23 22 21 21 21 22 22 23 24 25 25 28 30 32 32 31 30 28 27 25 24 22 21
30 31 34 37 39 39 38 37 35 34 33 33 32 31 29 28 28 27 26 25 24 23 22 21 21 22 22 22 23 24 24 25 28 30 33 33 33 32 30 28 27 25 23
27 27 30 35 37 38 38 37 36 35 34 34 33 32 31 30 29 27 26 26 25 23 22 21 21 21 21 21 22 23 25 26 26 28 30 33 35 34 33 32 30 28 26
25 23 26 31 35 38 38 37 36 35 35 34 34 33 32 31 29 28 27 25 25 24 22 21 20 20 20 20 21 21 23 25 25 26 27 30 34 36 36 35 34 32 30
26 23 23 26 32 36 36 36 36 36 35 35 35 34 33 32 30 28 27 26 25 23 22 20 19 19 19 19 19 20 21 22 24 25 27 27 30 34 37 38 37 36 34
29 27 25 26 28 33 35 35 35 35 35 35 35 34 33 32 30 29 28 27 25 24 22 21 19 18 17 18 18 18 19 20 22 23 24 26 27 29 34 37 39 39 37
34 32 29 29 29 31 33 33 33 35 35 35 35 34 34 33 31 30 29 28 26 25 23 21 19 17 16 16 16 16 17 18 19 21 22 24 26 28 30 34 37 39 40
38 37 36 34 34 34 35 34 34 36 37 37 36 35 35 34 33 32 31 29 28 26 25 23 20 18 17 16 15 15 15 16 18 19 21 22 24 26 28 30 32 35 39
42 42 42 41 40 40 39 39 38 38 38 38 38 37 36 36 35 34 33 32 30 29 27 25 22 20 19 17 15 14 14 15 16 18 20 21 23 25 27 29 31 32 34
46 47 47 47 47 47 46 44 43 42 41 41 40 40 40 39 38 37 36 34 33 32 30 28 25 23 21 19 17 16 15 15 16 17 19 21 23 24 26 28 30 32 33
47 49 50 51 52 52 52 51 50 48 46 45 44 43 43 42 42 41 39 38 36 35 33 31 29 27 24 21 19 18 17 17 17 17 18 20 22 24 26 28 30 31 32
47 49 51 54 55 56 56 56 55 54 52 50 49 47 46 46 45 44 43 41 40 38 36 34 32 30 27 24 22 20 19 18 19 19 19 21 23 24 26 28 30 31 32
49 49 50 52 55 58 60 61 61 60 59 56 54 52 50 49 48 48 46 45 43 41 39 37 35 33 30 27 24 22 21 20 20 20 20 21 23 25 26 28 29 30 31
52 53 54 54 55 57 60 62 64 65 64 63 61 58 55 54 52 51 50 48 46 45 43 41 38 35 32 29 26 24 23 22 22 21 21 22 23 25 26 27 28 29 30
55 57 59 60 60 60 62 63 65 67 67 68 66 64 61 58 57 55 53 51 49 48 46 44 41 38 35 32 29 26 24 23 23 22 22 23 23 24 26 27 28 28 29
58 59 60 61 62 63 64 66 67 68 69 70 70 69 67 64 60 59 57 54 52 51 49 47 44 40 37 34 31 29 26 25 24 23 23 23 23 24 25 27 27 28 28
57 57 58 59 61 63 64 66 69 70 71 72 72 72 71 70 67 62 60 58 55 53 51 49 46 43 40 37 34 31 28 26 25 24 23 23 23 24 25 26 27 27 26
56 55 55 56 58 60 63 65 66 70 72 73 74 74 75 74 73 69 64 61 60 57 54 51 49 46 42 39 36 33 30 28 26 25 24 23 24 24 25 25 25 25 24
52 51 51 52 54 56 58 61 63 65 69 72 74 75 76 76 75 74 70 65 62 60 56 53 50 48 45 42 38 35 32 29 27 25 25 24 24 24 24 24 24 23 23
46 45 46 47 49 51 54 56 59 60 61 65 69 73 76 77 76 75 75 71 67 63 61 58 55 50 47 44 41 38 34 31 28 27 25 24 24 24 24 24 23 22 21
41 40 40 41 43 45 49 51 53 55 55 57 61 65 70 74 74 75 75 75 72 68 62 58 56 53 50 47 44 40 36 32 30 27 26 25 24 24 24 24 24 23 22
35 34 33 33 35 38 42 45 47 48 49 50 52 55 60 66 70 72 73 73 72 70 67 61 56 54 53 50 46 42 37 34 30 28 26 25 24 23 23 24 24 23 22
30 26 25 25 27 31 35 39 41 42 43 44 45 46 51 56 60 64 68 70 70 69 67 64 59 56 56 53 48 43 40 36 32 29 27 26 25 24 23 23 23 23 23
Wind_Direction
281 277 270 263 260 258 257 256 256 258 259 260 258 257 254 248 248 252 255 257 257 255 253 249 248 245 242 240 239 237 232 228 226 224 222 222 223 223 224 225 226 228 229
282 277 267 261 258 256 255 252 253 255 256 255 255 254 251 249 249 253 254 256 255 254 252 248 248 248 248 244 241 241 238 233 229 227 225 223 224 225 225 227 228 230 232
283 275 264 258 255 253 253 251 253 252 252 251 252 251 249 248 248 248 251 252 254 253 249 248 248 249 249 247 244 243 242 238 233 231 228 225 225 226 227 228 230 231 233
284 271 261 254 250 251 251 250 253 250 249 248 248 248 247 245 245 245 248 249 251 250 249 250 248 248 249 248 247 246 245 240 238 235 232 229 227 227 228 230 231 232 233
286 268 258 249 248 247 248 249 248 247 246 246 245 244 244 243 243 245 245 248 249 249 249 248 248 248 248 250 249 248 245 242 240 238 236 233 230 229 229 231 232 233 233
286 269 258 248 245 246 247 246 244 244 245 245 244 243 243 242 243 244 244 246 248 247 247 246 245 246 248 249 249 250 247 244 242 242 241 237 233 231 231 232 233 234 234
289 276 260 249 246 247 246 244 243 243 243 243 243 242 243 243 243 243 242 243 244 244 244 244 243 244 246 247 249 249 249 246 245 245 242 241 237 235 234 233 233 234 234
290 282 267 257 249 247 246 244 241 242 242 242 243 243 244 244 242 241 240 240 239 239 240 239 239 240 243 245 248 249 249 249 249 248 246 245 242 239 237 235 234 235 234
283 279 270 263 255 248 245 243 240 242 241 242 242 243 243 243 241 239 237 236 235 236 235 234 234 236 241 246 248 251 251 252 252 250 249 248 249 245 241 238 235 235 235
275 271 266 261 257 251 246 244 242 241 240 241 241 242 242 241 239 236 234 233 232 233 231 230 231 234 241 247 251 254 256 257 257 256 253 251 250 248 246 244 239 237 236
269 266 261 257 254 252 250 248 245 242 240 240 240 240 240 239 237 234 232 231 231 231 230 229 230 234 239 245 250 255 260 261 261 261 258 255 252 249 247 247 244 241 239
266 263 259 256 253 250 249 249 247 244 242 240 239 238 238 237 236 234 232 231 231 231 230 230 231 234 239 243 249 255 261 266 268 267 264 260 257 253 250 247 244 243 242
266 262 259 255 252 250 249 248 248 247 244 241 239 237 236 235 235 234 232 231 231 230 230 231 231 234 238 243 248 254 261 267 272 273 271 267 262 258 253 249 245 245 246
267 263 259 256 253 250 249 248 247 246 245 243 240 237 235 234 233 233 233 232 231 231 230 231 231 234 238 243 248 255 261 265 271 275 275 272 268 263 258 252 248 246 246
271 267 262 257 253 251 249 247 246 246 245 243 241 238 235 234 233 233 233 233 232 231 230 230 231 233 237 242 247 253 260 265 269 275 277 275 270 264 259 255 251 248 247
273 270 265 260 256 252 249 247 245 244 244 243 241 238 235 234 233 232 232 232 232 232 232 230 231 233 235 240 245 252 259 264 268 273 277 278 273 266 261 256 253 250 248
273 269 265 261 257 253 250 247 245 243 242 241 240 239 237 234 233 233 232 232 232 232 234 232 231 232 235 238 243 250 257 262 266 271 276 278 274 267 261 257 253 251 249
276 271 267 262 258 253 250 247 244 243 241 239 238 238 237 235 233 232 232 231 231 232 233 234 233 232 234 236 241 246 254 261 265 269 275 277 275 268 261 256 253 252 251
279 274 268 263 258 253 250 246 243 242 240 239 237 236 236 235 234 233 232 231 231 231 232 233 234 233 233 235 239 244 252 258 262 266 273 276 273 267 261 255 252 252 252
282 276 269 263 257 253 249 245 242 240 240 238 237 236 235 234 234 233 232 231 230 230 231 232 233 233 233 234 237 242 248 254 258 263 270 273 271 266 260 254 251 250 249
285 277 270 263 258 253 248 245 243 240 239 238 236 236 235 234 233 233 232 230 230 229 229 230 231 232 232 232 235 238 244 250 254 260 266 269 268 264 257 252 249 248 246
286 278 271 265 258 252 248 244 242 241 239 237 236 235 235 235 233 233 232 230 229 228 228 228 229 229 230 230 232 235 239 245 250 256 261 264 266 262 256 251 248 247 245
289 280 273 265 257 251 246 243 240 239 238 237 236 236 235 234 233 233 233 232 230 229 229 227 226 226 227 227 229 231 234 239 245 252 257 261 261 259 254 250 248 244 242
293 284 275 266 257 249 243 240 238 237 235 235 235 235 234 234 233 233 233 232 232 230 228 228 225 224 225 225 225 227 231 235 241 247 253 257 257 255 252 249 246 242 242
299 288 277 265 254 245 240 235 233 232 231 231 232 232 232 232 233 232 232 232 232 232 231 230 224 223 224 224 223 224 227 231 235 242 247 251 252 251 251 247 243 242 242
308 295 280 266 251 240 235 230 227 226 225 224 226 227 229 229 230 231 231 231 231 231 231 230 229 226 223 222 221 222 224 227 231 236 242 245 246 248 247 245 242 241 241
Height
5847 5845 5844 5845 5846 5847 5849 5850 5851 5852 5853 5853 5854 5855 5856 5858 5859 5861 5862 5863 5864 5865 5866 5867 5868 5869 5871 5873 5875 5877 5879 5881 5883 5885 5888 5890 5893 5895 5897 5899 5902 5903 5905
5837 5835 5835 5836 5837 5839 5840 5842 5844 5845 5846 5847 5848 5849 5851 5852 5853 5855 5856 5858 5859 5860 5861 5862 5863 5864 5866 5867 5869 5871 5874 5876 5878 5881 5883 5886 5889 5891 5894 5896 5899 5901 5903
5827 5825 5825 5827 5829 5831 5832 5834 5836 5837 5839 5840 5842 5843 5844 5846 5847 5849 5850 5852 5853 5855 5856 5857 5858 5859 5861 5862 5864 5866 5868 5870 5873 5876 5879 5881 5884 5887 5890 5892 5895 5897 5900
5816 5815 5815 5818 5820 5822 5825 5827 5828 5830 5832 5833 5835 5836 5838 5839 5842 5843 5845 5846 5848 5849 5851 5852 5853 5854 5856 5857 5859 5860 5862 5864 5867 5870 5873 5876 5879 5882 5885 5888 5891 5894 5896
5808 5806 5807 5809 5811 5814 5817 5819 5821 5823 5824 5826 5828 5829 5831 5833 5835 5837 5839 5840 5842 5844 5845 5847 5848 5849 5851 5852 5854 5855 5857 5859 5862 5864 5867 5870 5873 5877 5880 5883 5886 5889 5892
5800 5799 5799 5800 5803 5806 5809 5811 5813 5815 5817 5819 5821 5823 5825 5826 5828 5830 5832 5834 5836 5838 5840 5842 5843 5844 5846 5847 5849 5850 5852 5854 5856 5859 5861 5864 5867 5871 5874 5877 5881 5884 5887
5795 5793 5793 5793 5795 5798 5801 5803 5805 5807 5810 5812 5814 5816 5818 5820 5822 5824 5826 5829 5831 5833 5834 5836 5838 5840 5841 5842 5844 5845 5847 5849 5851 5853 5855 5858 5861 5864 5867 5871 5874 5878 5882
5790 5789 5788 5788 5789 5791 5793 5795 5797 5800 5802 5805 5807 5809 5811 5814 5815 5817 5820 5823 5825 5827 5829 5831 5833 5835 5836 5838 5839 5841 5842 5844 5846 5848 5850 5852 5854 5857 5860 5864 5867 5871 5875
5785 5784 5783 5782 5782 5783 5784 5786 5788 5791 5794 5797 5799 5802 5805 5807 5809 5812 5814 5817 5819 5822 5824 5826 5828 5830 5832 5834 5835 5837 5838 5839 5841 5843 5844 5846 5848 5851 5853 5856 5860 5864 5868
5777 5776 5775 5775 5775 5775 5777 5778 5780 5782 5785 5788 5791 5794 5797 5800 5803 5806 5809 5811 5814 5816 5819 5821 5824 5826 5828 5830 5831 5833 5834 5835 5837 5838 5839 5841 5843 5845 5847 5849 5852 5855 5860
5767 5766 5766 5766 5766 5767 5768 5769 5771 5774 5776 5779 5782 5785 5789 5792 5795 5799 5802 5805 5808 5811 5814 5816 5819 5821 5823 5825 5827 5829 5830 5831 5832 5833 5835 5836 5838 5840 5842 5843 5846 5849 5852
5756 5755 5755 5755 5756 5757 5758 5760 5762 5764 5767 5769 5773 5776 5780 5783 5787 5791 5795 5798 5802 5805 5808 5811 5813 5817 5819 5821 5823 5825 5826 5827 5828 5829 5830 5831 5833 5834 5836 5838 5840 5842 5845
5742 5742 5742 5742 5743 5745 5747 5749 5751 5754 5756 5759 5762 5766 5770 5774 5779 5783 5787 5791 5795 5799 5802 5805 5808 5811 5814 5816 5818 5820 5821 5822 5823 5824 5825 5826 5827 5829 5830 5832 5834 5836 5838
5727 5726 5727 5728 5729 5731 5733 5736 5739 5742 5745 5748 5752 5755 5760 5764 5769 5773 5778 5783 5787 5791 5795 5798 5802 5805 5808 5811 5813 5815 5817 5818 5819 5820 5820 5820 5821 5822 5824 5826 5828 5830 5832
5712 5711 5711 5712 5713 5715 5718 5721 5725 5728 5732 5736 5740 5744 5748 5753 5758 5763 5768 5774 5778 5783 5787 5791 5795 5798 5802 5805 5808 5810 5811 5813 5814 5814 5815 5815 5815 5816 5817 5819 5821 5823 5825
5696 5695 5694 5695 5696 5698 5701 5704 5708 5713 5717 5722 5727 5731 5736 5741 5746 5752 5757 5763 5768 5773 5778 5783 5787 5791 5795 5798 5801 5803 5805 5807 5808 5809 5809 5809 5810 5810 5811 5813 5814 5816 5818
5679 5677 5676 5676 5677 5679 5682 5685 5690 5695 5700 5706 5712 5717 5723 5728 5734 5740 5745 5751 5757 5763 5768 5773 5778 5783 5787 5791 5794 5797 5799 5801 5802 5803 5803 5804 5804 5804 5805 5806 5808 5809 5810
5658 5656 5655 5655 5656 5658 5662 5665 5670 5675 5681 5688 5694 5701 5708 5714 5720 5726 5733 5739 5746 5752 5758 5763 5769 5774 5779 5783 5787 5790 5792 5794 5795 5796 5797 5797 5798 5798 5799 5800 5801 5802 5804
5635 5632 5631 5631 5632 5635 5639 5643 5648 5654 5661 5668 5676 5683 5691 5697 5705 5712 5719 5726 5734 5740 5747 5753 5759 5765 5770 5775 5779 5782 5785 5787 5789 5790 5791 5791 5792 5792 5793 5794 5795 5796 5798
5611 5608 5606 5605 5607 5610 5614 5619 5625 5632 5639 5647 5656 5664 5672 5680 5688 5696 5704 5712 5720 5728 5735 5742 5749 5755 5761 5766 5770 5774 5777 5780 5782 5784 5785 5785 5786 5786 5787 5788 5789 5790 5791
5586 5583 5581 5581 5582 5585 5590 5596 5602 5609 5617 5626 5635 5644 5653 5662 5670 5679 5688 5697 5706 5714 5722 5730 5738 5745 5751 5757 5762 5766 5770 5773 5775 5777 5779 5779 5780 5780 5781 5782 5783 5784 5786
5563 5559 5558 5558 5559 5563 5568 5574 5580 5587 5596 5605 5614 5624 5633 5643 5652 5662 5672 5681 5690 5699 5709 5718 5726 5734 5741 5748 5753 5758 5762 5766 5769 5771 5772 5773 5774 5775 5776 5776 5778 5779 5781
5542 5538 5536 5536 5537 5542 5547 5553 5560 5568 5577 5586 5595 5604 5613 5623 5634 5644 5655 5665 5675 5684 5694 5705 5714 5722 5730 5738 5744 5749 5753 5758 5761 5764 5766 5767 5768 5769 5770 5771 5772 5774 5776
5524 5520 5517 5516 5518 5522 5528 5535 5542 5551 5561 5569 5578 5586 5595 5605 5616 5627 5638 5650 5660 5670 5681 5691 5702 5711 5718 5726 5733 5739 5745 5749 5754 5757 5759 5761 5762 5763 5764 5766 5767 5769 5771
5510 5504 5501 5501 5502 5506 5512 5519 5527 5537 5547 5556 5564 5572 5580 5590 5600 5612 5624 5636 5647 5656 5667 5678 5688 5697 5707 5715 5723 5730 5736 5741 5746 5750 5752 5754 5756 5757 5758 5760 5762 5764 5766
5499 5494 5491 5490 5491 5495 5501 5508 5516 5525 5535 5544 5553 5561 5569 5577 5586 5596 5608 5620 5632 5643 5654 5665 5676 5685 5695 5704 5713 5721 5728 5733 5738 5742 5745 5748 5750 5752 5753 5755 5756 5759 5761